SAS903 ESGG-EKCH

Flight info

Callsign SAS903
Flight time N/A
Altitude 21000
Route TOPLA L996 ERNOV
Aircraft A320/M-SDE3FGHIRWY/LB1

Departure

Time N/A
Airport Göteborg Landvetter Airport (ESGG)

Arrival

Time 2026-05-01 07:42
Airport Copenhagen Kastrup Airport (EKCH)
Time Latitude Longitude Altitude Speed Heading
2026-05-01 07:23 57.04124 12.35948 18987 ft 386 kts 173°
2026-05-01 07:23 56.98755 12.37305 20076 ft 393 kts 173°
2026-05-01 07:24 56.96072 12.37977 20638 ft 396 kts 173°
2026-05-01 07:24 56.93324 12.38664 21164 ft 399 kts 173°
2026-05-01 07:24 56.90563 12.39355 21365 ft 401 kts 173°
2026-05-01 07:24 56.87756 12.40055 21410 ft 413 kts 173°
2026-05-01 07:25 56.84890 12.40764 21408 ft 418 kts 173°
2026-05-01 07:25 56.82011 12.41477 21415 ft 419 kts 173°
2026-05-01 07:25 56.79123 12.42197 21403 ft 419 kts 173°
2026-05-01 07:25 56.76233 12.42920 21414 ft 419 kts 173°
2026-05-01 07:26 56.73356 12.43634 21403 ft 410 kts 173°
2026-05-01 07:26 56.70551 12.44326 21412 ft 405 kts 173°
2026-05-01 07:26 56.67765 12.45010 21407 ft 404 kts 173°
2026-05-01 07:26 56.64984 12.45694 21405 ft 403 kts 173°
2026-05-01 07:27 56.62211 12.46378 21411 ft 403 kts 173°
2026-05-01 07:27 56.59424 12.47062 21408 ft 403 kts 173°
2026-05-01 07:27 56.56681 12.47754 21405 ft 403 kts 173°
2026-05-01 07:27 56.53903 12.48440 21410 ft 403 kts 173°
2026-05-01 07:28 56.51124 12.49113 21412 ft 403 kts 173°
2026-05-01 07:28 56.48350 12.49779 21155 ft 400 kts 173°
2026-05-01 07:28 56.45590 12.50448 20521 ft 400 kts 173°
2026-05-01 07:28 56.42823 12.51121 19907 ft 402 kts 173°
2026-05-01 07:29 56.40052 12.51794 19311 ft 402 kts 173°
2026-05-01 07:29 56.37274 12.52464 18718 ft 403 kts 173°
2026-05-01 07:29 56.34496 12.53139 18051 ft 403 kts 173°
2026-05-01 07:29 56.31728 12.53813 17394 ft 402 kts 173°
2026-05-01 07:30 56.28955 12.54488 16745 ft 401 kts 173°
2026-05-01 07:30 56.26199 12.55156 16120 ft 399 kts 173°
2026-05-01 07:30 56.23451 12.55821 15507 ft 397 kts 173°
2026-05-01 07:30 56.20720 12.56476 14900 ft 395 kts 173°
2026-05-01 07:31 56.18002 12.57070 14294 ft 392 kts 178°
2026-05-01 07:31 56.10480 12.54380 12360 ft 346 kts 195°
2026-05-01 07:32 56.06687 12.52601 11330 ft 327 kts 195°
2026-05-01 07:32 56.04513 12.51588 10727 ft 319 kts 195°
2026-05-01 07:33 56.00317 12.49912 9444 ft 306 kts 181°
2026-05-01 07:33 55.98236 12.50469 8775 ft 302 kts 161°
2026-05-01 07:33 55.95043 12.55041 7536 ft 296 kts 129°
2026-05-01 07:34 55.93759 12.57884 6934 ft 292 kts 129°
2026-05-01 07:34 55.91241 12.63449 5672 ft 285 kts 129°
2026-05-01 07:34 55.90009 12.66157 5193 ft 278 kts 129°
2026-05-01 07:35 55.88785 12.68843 4727 ft 280 kts 129°
2026-05-01 07:35 55.87570 12.71504 4567 ft 272 kts 129°
2026-05-01 07:35 55.86388 12.74080 4393 ft 266 kts 129°
2026-05-01 07:35 55.85224 12.76616 4105 ft 264 kts 129°
2026-05-01 07:36 55.84060 12.79144 3792 ft 263 kts 129°
2026-05-01 07:36 55.82914 12.81622 3459 ft 263 kts 129°
2026-05-01 07:36 55.81751 12.84115 3236 ft 258 kts 129°
2026-05-01 07:36 55.80618 12.86527 3105 ft 252 kts 130°
2026-05-01 07:37 55.77678 12.88918 3013 ft 231 kts 189°
2026-05-01 07:37 55.76210 12.87993 3007 ft 218 kts 218°
2026-05-01 07:37 55.75084 12.86315 3004 ft 206 kts 225°
2026-05-01 07:38 55.74025 12.84648 2990 ft 202 kts 225°
2026-05-01 07:38 55.72989 12.83026 2760 ft 196 kts 225°
2026-05-01 07:38 55.70984 12.79895 2268 ft 189 kts 225°
2026-05-01 07:39 55.70019 12.78391 2015 ft 179 kts 226°
2026-05-01 07:39 55.69120 12.76994 1776 ft 165 kts 225°
2026-05-01 07:39 55.67533 12.74523 1385 ft 144 kts 226°
2026-05-01 07:40 55.66788 12.73363 1187 ft 142 kts 225°
2026-05-01 07:40 55.66051 12.72214 995 ft 141 kts 225°
2026-05-01 07:40 55.65322 12.71081 809 ft 138 kts 224°
2026-05-01 07:40 55.64596 12.69953 612 ft 139 kts 224°
2026-05-01 07:41 55.63873 12.68830 414 ft 138 kts 223°
2026-05-01 07:41 55.63156 12.67708 255 ft 137 kts 224°
2026-05-01 07:41 55.61776 12.65558 24 ft 109 kts 221°
2026-05-01 07:42 55.61386 12.64950 25 ft 39 kts 222°
2026-05-01 07:42 55.61253 12.64575 24 ft 35 kts 253°
2026-05-01 07:42 55.61192 12.64242 25 ft 19 kts 260°
2026-05-01 07:42 55.61275 12.64120 24 ft 18 kts 14°
2026-05-01 07:43 55.61392 12.64239 24 ft 21 kts 34°
2026-05-01 07:43 55.61518 12.64384 24 ft 23 kts 32°
2026-05-01 07:43 55.61817 12.64729 25 ft 28 kts 33°
2026-05-01 07:44 55.62122 12.65081 25 ft 21 kts 34°
2026-05-01 07:44 55.62316 12.64973 24 ft 19 kts 304°
2026-05-01 07:45 55.62392 12.64770 26 ft 21 kts 304°
2026-05-01 07:45 55.62478 12.64540 26 ft 24 kts 302°
2026-05-01 07:45 55.62563 12.64305 24 ft 17 kts 304°
2026-05-01 07:45 55.62664 12.64310 24 ft 17 kts 22°
2026-05-01 07:46 55.62748 12.64375 24 ft 9 kts 22°
2026-05-01 07:46 55.62760 12.64421 24 ft 4 kts 94°
2026-05-01 07:46 55.62755 12.64476 24 ft 0 kts 101°